GW0683 Weather Reports


time (UTC)temp
F
wind
direction
speed
knots
gust
knots
rain 1hr
in
rain 24hr
in
rain mn
in
humidity
%
barometer
mb
20260507051551 60 0 0.0 1.7 0.00 0.00 0.00 85 1015.5
20260507050058 60 4 0.0 5.2 0.00 0.00 0.00 85 1015.5
20260507044549 61 51 0.0 3.5 0.00 0.00 0.00 84 1015.5
20260507043051 61 20 0.9 4.3 0.00 0.00 0.00 84 1015.5
20260507041547 61 0 0.0 3.5 0.00 0.00 0.00 84 1015.3
20260507040046 61 63 0.9 5.2 0.00 0.00 0.00 84 1015.3
20260507034608 61 20 0.0 3.5 0.00 0.00 0.00 84 1015.4
20260507033103 61 22 0.0 2.6 0.00 0.00 0.00 84 1015.4
20260507031545 62 0 0.0 1.7 0.00 0.00 0.00 84 1015.4
20260507030054 62 46 0.0 2.6 0.00 0.00 0.00 84 1015.0
20260507024557 62 0 0.0 3.5 0.00 0.00 0.00 84 1015.1
20260507023050 62 322 0.9 4.3 0.00 0.00 0.00 83 1014.9
20260507021555 62 0 0.0 1.7 0.00 0.00 0.00 83 1014.9
20260507020047 62 0 0.0 3.5 0.00 0.00 0.00 83 1014.4
20260507014549 62 0 0.0 3.5 0.00 0.00 0.00 83 1014.2
20260507013058 62 338 0.0 2.6 0.00 0.00 0.00 83 1013.8
20260507011551 62 320 0.0 3.5 0.00 0.00 0.00 83 1013.7
20260507010053 62 42 0.0 3.5 0.00 0.00 0.00 82 1013.4
20260507004549 62 0 0.0 4.3 0.00 0.00 0.00 82 1013.5
20260507003047 62 6 0.9 4.3 0.00 0.00 0.00 82 1013.5
20260507001608 62 322 1.7 6.1 0.00 0.00 0.00 82 1013.4
20260507000048 63 350 0.9 3.5 0.00 0.00 0.00 82 1013.0
20260506234600 62 342 0.9 5.2 0.00 0.00 0.00 82 1013.1
20260506233050 62 9 1.7 6.1 0.00 0.00 0.00 82 1012.9
20260506231552 62 332 0.9 6.1 0.00 0.00 0.00 82 1012.7
20260506230050 62 347 1.7 6.1 0.00 0.00 0.00 83 1012.8
20260506224606 62 27 0.9 4.3 0.00 0.00 0.00 82 1012.7
20260506223054 62 39 1.7 5.2 0.00 0.00 0.00 83 1012.6
20260506221553 62 49 2.6 7.8 0.00 0.00 0.00 83 1012.8
20260506220051 62 248 1.7 7.0 0.00 0.00 0.00 83 1012.4
20260506214541 62 318 0.9 7.0 0.00 0.00 0.00 83 1012.7
20260506213049 62 298 2.6 6.1 0.00 0.00 0.00 83 1012.6
20260506211554 62 25 3.5 7.8 0.00 0.00 0.00 83 1012.5
20260506210047 63 25 1.7 6.1 0.00 0.00 0.00 83 1012.7
20260506204545 63 330 1.7 6.1 0.00 0.00 0.00 83 1012.6
20260506203043 64 323 0.9 7.0 0.00 0.00 0.00 82 1012.8
20260506201545 64 41 1.7 8.7 0.00 0.00 0.00 83 1012.9
20260506200051 65 312 1.7 6.1 0.00 0.00 0.00 82 1012.7
20260506194553 65 22 3.5 7.8 0.00 0.00 0.00 82 1012.7
20260506193052 66 13 2.6 8.7 0.00 0.00 0.00 81 1012.7
20260506191548 66 289 5.2 11.3 0.00 0.00 0.00 82 1012.4
20260506190045 66 288 5.2 10.4 0.00 0.00 0.00 81 1012.6
20260506184554 70 4 4.3 11.3 0.00 0.00 0.00 78 1012.6
20260506183047 74 18 3.5 7.8 0.00 0.00 0.00 77 1012.2
20260506181600 76 32 0.9 5.2 0.00 0.00 0.00 73 1012.0
20260506180050 76 314 1.7 6.1 0.00 0.00 0.00 72 1011.6
20260506174549 75 56 1.7 6.1 0.00 0.00 0.00 73 1011.8
20260506173117 75 340 1.7 5.2 0.00 0.00 0.00 74 1011.6
20260506171556 73 77 1.7 7.0 0.00 0.00 0.00 76 1011.5
20260506170104 72 59 0.9 5.2 0.00 0.00 0.00 75 1011.8
20260506164548 71 58 1.7 7.0 0.00 0.00 0.00 76 1011.8
20260506163047 69 21 3.5 9.6 0.00 0.00 0.00 78 1012.0
20260506161550 67 62 1.7 9.6 0.00 0.00 0.00 85 1012.0
20260506160059 66 305 3.5 9.6 0.00 0.00 0.00 86 1012.7
20260506154551 66 309 2.6 7.0 0.00 0.00 0.00 86 1015.3
20260506153053 67 15 3.5 11.3 0.00 0.00 0.00 84 1011.8
20260506151551 77 297 0.9 3.5 0.00 0.00 0.00 84 1011.6
20260506150050 77 0 0.0 0.9 0.00 0.00 0.00 84 1011.0
20260506144550 77 0 0.0 2.6 0.00 0.00 0.00 85 1010.7
20260506143051 77 162 0.0 2.6 0.00 0.00 0.00 86 1010.3
20260506141545 76 98 0.9 4.3 0.00 0.00 0.00 88 1010.0
20260506140049 75 127 0.0 1.7 0.00 0.00 0.00 91 1010.1
20260506134548 75 0 0.0 0.0 0.00 0.00 0.00 93 1010.1
20260506133048 74 0 0.0 0.9 0.00 0.00 0.00 93 1009.6
20260506131557 74 0 0.0 0.9 0.00 0.00 0.00 94 1009.5
20260506130055 74 0 0.0 0.0 0.00 0.00 0.00 94 1009.3
20260506124552 73 0 0.0 0.0 0.00 0.00 0.00 94 1009.2
20260506123048 73 0 0.0 0.0 0.00 0.00 0.00 93 1009.0
20260506121544 73 0 0.0 0.0 0.00 0.00 0.00 93 1009.0
20260506120050 73 0 0.0 0.0 0.00 0.00 0.00 93 1009.2
20260506114547 73 0 0.0 0.0 0.00 0.00 0.00 92 1009.2
20260506113049 74 0 0.0 0.9 0.00 0.00 0.00 91 1009.1
20260506111552 74 0 0.0 0.0 0.00 0.00 0.00 91 1009.2
20260506110047 74 0 0.0 0.0 0.00 0.00 0.00 90 1009.1
20260506104550 74 0 0.0 0.9 0.00 0.00 0.00 89 1008.9
20260506103047 75 0 0.0 1.7 0.00 0.00 0.00 88 1008.8
20260506101551 75 0 0.0 1.7 0.00 0.00 0.00 88 1008.7
20260506100051 75 0 0.0 4.3 0.00 0.00 0.00 88 1008.3
20260506094559 75 0 0.0 4.3 0.00 0.00 0.00 87 1008.2
20260506093052 75 0 0.0 2.6 0.00 0.00 0.00 88 1008.2
20260506091551 75 0 0.0 1.7 0.00 0.00 0.00 88 1008.0
20260506090046 75 0 0.0 5.2 0.00 0.00 0.00 88 1007.9
20260506084557 75 184 0.0 5.2 0.00 0.00 0.00 88 1007.6
20260506083058 75 148 0.9 3.5 0.00 0.00 0.00 88 1007.8
20260506081551 75 240 0.0 4.3 0.00 0.00 0.00 87 1007.8
20260506073054 75 122 0.9 7.8 0.00 0.00 0.00 87 1008.0
20260506071555 75 150 0.0 6.1 0.00 0.00 0.00 87 1008.1
20260506061545 75 118 0.9 7.8 0.00 0.00 0.00 87 1008.1